Find Parasol

NORAD ID: 28498 Int'l Des: 2004-049 Owner: CNES Country: F operational
LEOCIRCULARRETROGRADE

リアルタイム位置

3D地球を読み込み中...

Parasolについて

説明を読み込み中...

次回通過

Passes for default location (London). Set your location on the main map for personalized predictions.

高度履歴

Loading altitude history...

軌道要素

1 28498U 04049G 26106.47254161 .00000480 00000-0 80519-4 0 9992
2 28498 98.5049 295.1741 0013452 216.5149 143.5142 14.74525842140142
Epoch: Apr 16, 2026 • Age: 12 hours

現在のステータス

高度 644.1 km
速度 7.54 km/s
衛星直下点 21.44°N, 77.94°W
打ち上げ日 Dec 18, 2004
運用期間 21.3 years
タイプ other

技術仕様

分類 Payload
質量 110.00 kg
乾燥質量 110.00 kg
総質量 110.00 kg
長さ 0.60 m
直径 0.60 m
スパン 1.00 m
形状 Box + Pan
製造者 EADSB
バスタイプ Myriade
フェーズステータス In Orbit
所有者/国 CNES/F

Most Searched